This is the latest recevied weather packets stored in our database for station/object EA1EXV-11. If no packets are shown the sender has not sent any weather packets the latest 10 day(s).
| Time | Temp. | Humidity | Pressure | Rain* | Wind** | Luminosity | Snow |
|---|---|---|---|---|---|---|---|
| 1777631703 | 22.78° C | 56% | 1020.3 hPa | - | - | - | - |
| 1777630803 | 23.33° C | 58% | 1020.4 hPa | - | - | - | - |
| 1777629903 | 23.89° C | 61% | 1020.3 hPa | - | - | - | - |
| 1777629003 | 21.67° C | 65% | 1020.2 hPa | - | - | - | - |
| 1777628103 | 20° C | 68% | 1020.3 hPa | - | - | - | - |
| 1777627203 | 18.89° C | 71% | 1020.2 hPa | - | - | - | - |
| 1777626302 | 18.89° C | 72% | 1020.2 hPa | - | - | - | - |
| 1777625402 | 17.78° C | 74% | 1019.9 hPa | - | - | - | - |
| 1777624502 | 17.22° C | 75% | 1020 hPa | - | - | - | - |
| 1777623602 | 17.22° C | 76% | 1020 hPa | - | - | - | - |
| 1777622702 | 16.11° C | 77% | 1020 hPa | - | - | - | - |
| 1777621802 | 15° C | 78% | 1020 hPa | - | - | - | - |
| 1777620902 | 14.44° C | 78% | 1020.1 hPa | - | - | - | - |
| 1777620002 | 13.33° C | 79% | 1020 hPa | - | - | - | - |
| 1777619102 | 13.33° C | 79% | 1020 hPa | - | - | - | - |
| 1777618201 | 12.78° C | 79% | 1020 hPa | - | - | - | - |
| 1777617301 | 12.22° C | 80% | 1019.7 hPa | - | - | - | - |
| 1777616401 | 12.22° C | 79% | 1019.8 hPa | - | - | - | - |
| 1777615501 | 11.67° C | 80% | 1019.8 hPa | - | - | - | - |
| 1777614601 | 11.67° C | 80% | 1019.9 hPa | - | - | - | - |
| 1777613701 | 11.11° C | 79% | 1019.7 hPa | - | - | - | - |
| 1777612801 | 11.11° C | 79% | 1019.7 hPa | - | - | - | - |
| 1777611901 | 11.11° C | 79% | 1019.6 hPa | - | - | - | - |
| 1777611001 | 11.11° C | 79% | 1019.5 hPa | - | - | - | - |
| 1777610101 | 11.11° C | 79% | 1019.7 hPa | - | - | - | - |
* Rain since midnight (hover to see other rain measurements)
** Current wind speed in m/s (hover to see current wind gust speed)